Location: Ehingen
(48.2869°N, 9.7112°E)
Time: 18:22:37
(UTC+02:00)

ISS - Pass Details

Date: 07 January 2018
Orbit: 401 x 409 km, 51.6° (Epoch: 22 August)

Event Time Altitude Azimuth Distance (km) Brightness Sun altitude
Exits shadow 07:26:58 - 292° (WNW) 1,551 -1.6 -7.2°
Reaches altitude 10° 07:27:04 10° 293° (WNW) 1,513 -1.6 -7.2°
Maximum altitude 07:30:28 81° 19° (NNE) 435 -3.7 -6.7°
Drops below altitude 10° 07:33:53 10° 109° (ESE) 1,516 0.8 -6.2°
Sets 07:35:59 0° 110° (ESE) 2,382 2.6 -5.9°
